TimeCST,TemperatureF,Dew PointF,Humidity,Sea Level PressureIn,VisibilityMPH,Wind Direction,Wind SpeedMPH,Gust SpeedMPH,PrecipitationIn,Events,Conditions,WindDirDegrees,DateUTC
12:15 AM,36.7,32.5,85,29.89,10.0,NNW,11.5,-,N/A,,Clear,330,2012-11-09 06:15:00
12:35 AM,36.5,32.0,84,29.88,10.0,NNW,5.8,-,N/A,,Clear,330,2012-11-09 06:35:00
12:55 AM,36.1,32.2,86,29.88,10.0,NNW,3.5,-,N/A,,Clear,340,2012-11-09 06:55:00
1:15 AM,37.4,33.1,84,29.87,10.0,North,5.8,-,N/A,,Clear,350,2012-11-09 07:15:00
1:35 AM,36.9,33.3,87,29.86,10.0,North,4.6,-,N/A,,Clear,350,2012-11-09 07:35:00
1:55 AM,36.5,33.1,87,29.86,10.0,North,3.5,-,N/A,,Clear,360,2012-11-09 07:55:00
2:15 AM,34.9,32.0,89,29.87,7.0,NW,5.8,-,N/A,,Clear,320,2012-11-09 08:15:00
2:35 AM,32.9,30.9,92,29.87,7.0,NNW,5.8,-,N/A,,Clear,330,2012-11-09 08:35:00
2:55 AM,32.7,30.9,93,29.87,5.0,NNW,3.5,-,N/A,,Clear,340,2012-11-09 08:55:00
3:15 AM,33.8,31.8,92,29.87,5.0,North,5.8,-,N/A,,Scattered Clouds,350,2012-11-09 09:15:00
3:35 AM,33.4,31.5,92,29.87,5.0,NNW,5.8,-,N/A,,Mostly Cloudy,330,2012-11-09 09:35:00
3:55 AM,35.2,33.3,92,29.88,5.0,NNW,5.8,-,N/A,,Overcast,340,2012-11-09 09:55:00
4:15 AM,36.7,34.3,91,29.88,4.0,North,5.8,-,N/A,,Overcast,350,2012-11-09 10:15:00
4:35 AM,37.4,34.9,91,29.88,5.0,North,8.1,-,N/A,,Overcast,350,2012-11-09 10:35:00
4:55 AM,37.6,35.1,91,29.88,4.0,North,8.1,-,N/A,,Overcast,360,2012-11-09 10:55:00
5:15 AM,37.6,35.1,91,29.88,4.0,North,10.4,-,N/A,,Overcast,10,2012-11-09 11:15:00
5:55 AM,37.8,35.2,91,29.87,4.0,North,11.5,16.1,N/A,,Overcast,10,2012-11-09 11:55:00
6:15 AM,38.1,35.6,91,29.88,4.0,North,10.4,-,N/A,,Overcast,10,2012-11-09 12:15:00
6:35 AM,37.9,35.6,91,29.87,4.0,NNE,9.2,-,N/A,,Overcast,20,2012-11-09 12:35:00
6:55 AM,37.8,35.2,91,29.86,4.0,North,9.2,-,N/A,,Overcast,360,2012-11-09 12:55:00
7:15 AM,37.6,35.1,91,29.87,2.5,NNE,11.5,-,N/A,,Overcast,20,2012-11-09 13:15:00
7:35 AM,37.6,35.1,91,29.87,2.5,NNE,11.5,-,N/A,,Overcast,20,2012-11-09 13:35:00
7:55 AM,37.8,35.2,91,29.88,3.0,North,9.2,-,N/A,,Overcast,10,2012-11-09 13:55:00
8:15 AM,37.8,35.1,90,29.87,3.0,North,9.2,-,N/A,,Overcast,10,2012-11-09 14:15:00
8:35 AM,38.3,35.2,89,29.86,3.0,NNE,10.4,16.1,N/A,,Overcast,20,2012-11-09 14:35:00
8:55 AM,38.3,35.2,89,29.86,4.0,NNE,12.7,16.1,N/A,,Overcast,30,2012-11-09 14:55:00
9:15 AM,38.3,35.1,88,29.85,3.0,NNE,12.7,-,N/A,,Unknown,20,2012-11-09 15:15:00
9:35 AM,38.3,35.1,88,29.84,4.0,NE,10.4,-,N/A,,Overcast,40,2012-11-09 15:35:00
9:55 AM,39.2,35.4,86,29.84,4.0,NNE,10.4,-,N/A,,Overcast,30,2012-11-09 15:55:00
10:15 AM,38.8,35.2,87,29.84,4.0,North,8.1,-,N/A,,Overcast,10,2012-11-09 16:15:00
10:55 AM,40.3,35.6,83,29.84,5.0,NNE,9.2,-,N/A,,Overcast,30,2012-11-09 16:55:00
11:15 AM,40.5,35.6,83,29.84,5.0,NNE,9.2,-,N/A,,Haze,30,2012-11-09 17:15:00
11:35 AM,41.0,36.0,82,29.83,5.0,North,9.2,-,N/A,,Haze,10,2012-11-09 17:35:00
11:55 AM,42.3,36.3,79,29.83,7.0,NNE,9.2,-,N/A,,Overcast,20,2012-11-09 17:55:00
12:15 PM,43.3,36.7,77,29.81,7.0,NNE,9.2,-,N/A,,Overcast,30,2012-11-09 18:15:00
12:35 PM,44.4,36.9,75,29.80,7.0,North,6.9,-,N/A,,Overcast,10,2012-11-09 18:35:00
12:55 PM,45.3,37.2,73,29.79,7.0,NNE,8.1,-,N/A,,Scattered Clouds,30,2012-11-09 18:55:00
1:15 PM,45.9,37.0,71,29.77,7.0,NNE,8.1,-,N/A,,Scattered Clouds,30,2012-11-09 19:15:00
1:35 PM,47.8,37.6,68,29.75,7.0,NE,8.1,-,N/A,,Scattered Clouds,50,2012-11-09 19:35:00
1:55 PM,49.8,38.3,65,29.74,10.0,ENE,9.2,-,N/A,,Clear,70,2012-11-09 19:55:00
2:15 PM,51.1,38.3,62,29.73,10.0,East,10.4,-,N/A,,Clear,80,2012-11-09 20:15:00
2:35 PM,52.2,38.5,60,29.73,10.0,ENE,8.1,-,N/A,,Mostly Cloudy,60,2012-11-09 20:35:00
2:55 PM,52.2,39.2,61,29.72,10.0,East,9.2,-,N/A,,Overcast,90,2012-11-09 20:55:00
3:15 PM,51.1,39.2,64,29.72,10.0,ESE,9.2,-,N/A,,Overcast,110,2012-11-09 21:15:00
3:35 PM,51.1,39.4,64,29.72,10.0,East,9.2,-,N/A,,Overcast,90,2012-11-09 21:35:00
3:55 PM,51.4,39.4,63,29.72,10.0,East,10.4,-,N/A,,Overcast,90,2012-11-09 21:55:00
4:15 PM,51.6,39.4,63,29.72,10.0,East,5.8,-,N/A,,Overcast,90,2012-11-09 22:15:00
4:35 PM,52.0,39.6,63,29.72,10.0,East,5.8,-,N/A,,Overcast,90,2012-11-09 22:35:00
4:55 PM,51.1,39.2,64,29.72,10.0,ENE,3.5,-,N/A,,Mostly Cloudy,70,2012-11-09 22:55:00
5:15 PM,48.7,38.3,67,29.72,7.0,NNE,4.6,-,N/A,,Clear,30,2012-11-09 23:15:00
5:35 PM,46.6,37.9,72,29.72,7.0,North,4.6,-,N/A,,Clear,10,2012-11-09 23:35:00
5:55 PM,46.6,38.3,73,29.72,10.0,North,6.9,-,N/A,,Clear,10,2012-11-09 23:55:00
6:15 PM,46.2,37.6,72,29.72,10.0,North,6.9,-,N/A,,Clear,360,2012-11-10 00:15:00
6:35 PM,43.9,36.9,76,29.72,10.0,North,6.9,-,N/A,,Clear,360,2012-11-10 00:35:00
6:55 PM,41.5,35.8,80,29.72,7.0,NNW,6.9,-,N/A,,Clear,330,2012-11-10 00:55:00
7:15 PM,41.9,36.3,81,29.70,7.0,North,5.8,-,N/A,,Clear,360,2012-11-10 01:15:00
7:35 PM,41.9,36.3,81,29.70,7.0,North,3.5,-,N/A,,Clear,350,2012-11-10 01:35:00
7:55 PM,41.5,36.3,82,29.69,7.0,NNW,3.5,-,N/A,,Clear,340,2012-11-10 01:55:00
8:15 PM,38.3,34.2,85,29.68,7.0,NW,3.5,-,N/A,,Clear,310,2012-11-10 02:15:00
8:35 PM,37.9,34.0,86,29.67,7.0,NW,3.5,-,N/A,,Clear,320,2012-11-10 02:35:00
8:55 PM,38.3,34.7,87,29.67,7.0,NNW,10.4,-,N/A,,Clear,330,2012-11-10 02:55:00
9:15 PM,39.4,35.6,86,29.67,7.0,NNW,10.4,-,N/A,,Clear,330,2012-11-10 03:15:00
9:35 PM,38.7,34.9,86,29.66,5.0,NNW,8.1,-,N/A,,Clear,330,2012-11-10 03:35:00
9:55 PM,38.7,35.1,87,29.65,5.0,NNW,9.2,-,N/A,,Clear,330,2012-11-10 03:55:00
10:15 PM,37.8,34.5,88,29.65,5.0,NNW,9.2,-,N/A,,Clear,330,2012-11-10 04:15:00
10:35 PM,37.4,34.5,89,29.63,5.0,NNW,9.2,-,N/A,,Clear,330,2012-11-10 04:35:00
10:55 PM,37.0,34.0,89,29.63,5.0,NW,5.8,-,N/A,,Clear,320,2012-11-10 04:55:00
11:15 PM,35.8,33.1,90,29.62,4.0,NW,8.1,-,N/A,,Clear,320,2012-11-10 05:15:00
11:35 PM,35.1,32.5,91,29.61,3.0,NW,5.8,-,N/A,,Mist,310,2012-11-10 05:35:00
11:55 PM,34.9,32.5,91,29.60,3.0,NW,8.1,-,N/A,,Mist,320,2012-11-10 05:55:00